HULIANWANG DIGUI-22

导读 | 豆包AI

HULIANWANG DIGUI-22是中国于北京时间2025年4月28日发射的低轨卫星,归属“HU LIAN WANG DIGUI”卫星星座系统。这类低轨星座通常依托大量卫星组网,旨在构建全球覆盖的卫星互联网络,可为全球各类终端用户提供无缝宽带接入服务,支撑天地一体化信息网络建设,服务全球通信、应急等领域应用需求。

基本信息
目录编号:
63689
目录名称:
HULIANWANG DIGUI-22
国际标识:
2025-086C
轨道中心:
EARTH
卫星名称:
HULIANWANG DIGUI-22
卫星全名:
HULIANWANG DIGUI-22
卫星状态:
在轨 (已飞行320 天)
发射日期:
2025-04-28 UTC
国别 :
中国 (CN)
星等 :
--
轨道信息
数据来源 国际轨道数据
星历时间: 2026-03-13T22:56:13+0800
11小时前
查看轨道信息
半长轴: 7546.013km
偏心率: 0.0001949
轨道倾角: 86.511°
近地点辐角 90.029°
升交点赤经 345.249°
平近点角 270.107°
近地点: 1166.405km
远地点: 1169.347km
周期: 108.727分钟
每日圈数: 13.244222
详细信息
使用方式:
暂无
2D轨道图
3D轨道图
轨道高度分析图
轨道倾角分析图
轨道综合分析图
查看轨道综合分析图